CAPE
0 0 0 0 0 0 0 0 0 0 0 0 0 0 0 0 0 0 0 0 0 367 297 169 298 226 125 119 342 267 214 90 186 148 93 29 0 0 0 0 0 0 0 0
11 0 0 0 0 0 1 1 0 0 0 1 0 0 0 0 0 0 0 0 0 106 320 307 283 337 241 29 47 120 72 76 190 102 83 10 0 0 0 0 0 0 0 0
3 0 0 18 5 7 9 0 0 1 0 0 0 0 0 0 0 0 0 0 0 0 400 349 304 256 288 163 134 104 60 36 130 115 69 7 0 0 0 0 0 0 0 0
1 0 0 7 0 21 20 3 42 14 35 6 3 0 0 0 0 0 0 0 0 5 385 372 343 312 351 284 222 139 33 0 67 124 63 10 0 0 0 0 0 0 0 0
0 0 0 0 0 1 0 0 20 45 73 13 0 49 0 0 0 0 0 0 15 19 18 402 369 466 405 369 377 209 8 3 4 83 81 13 0 0 0 0 0 0 0 0
0 0 0 0 0 0 0 13 28 35 37 139 0 44 0 0 0 0 0 9 37 44 19 213 291 483 475 426 433 249 23 22 2 28 93 9 0 0 0 0 0 0 0 0
0 0 0 0 0 0 1 15 22 21 11 5 0 44 0 0 9 19 0 0 10 5 43 86 132 339 470 308 179 137 44 44 16 7 83 1 0 0 0 0 0 0 0 0
0 0 0 0 0 0 0 0 71 0 0 0 0 0 0 0 0 5 1 0 0 0 45 41 59 75 212 157 69 48 33 23 18 5 32 9 0 0 0 0 0 0 0 0
3 0 0 0 1 11 0 32 0 148 35 59 0 0 0 0 0 0 0 0 0 0 11 18 32 32 91 62 52 33 8 33 22 0 5 16 0 0 0 0 0 0 0 0
5 11 0 0 26 4 25 1 16 31 31 35 5 0 0 0 17 128 58 33 0 0 0 0 16 20 2 0 13 7 11 26 16 3 0 7 0 0 0 0 0 0 0 0
12 50 0 0 35 14 42 17 94 107 74 4 7 0 5 0 53 135 84 25 59 2 1 14 31 21 4 0 0 0 2 6 4 3 0 7 0 0 0 0 0 1 1 0
0 6 0 0 0 60 93 42 45 136 55 1 20 0 11 9 34 102 62 60 120 50 0 0 0 8 0 0 0 0 0 0 6 9 0 0 0 0 0 3 8 5 1 0
0 0 0 0 49 0 0 39 44 41 2 0 28 0 37 11 34 12 5 1 5 0 0 1 0 0 0 0 0 0 0 0 0 3 0 0 0 0 1 17 24 5 0 0
0 0 1 1 0 0 13 7 2 9 19 0 0 0 6 0 0 0 5 2 0 2 0 0 0 0 0 0 0 0 0 0 0 1 0 0 0 4 17 29 13 2 0 0
2 0 0 0 0 0 0 2 0 4 0 0 0 0 0 32 7 64 114 31 1 0 0 0 0 0 0 0 0 0 0 0 1 3 0 0 0 19 35 5 0 0 0 0
7 0 0 0 0 0 0 0 0 27 6 7 0 0 0 57 47 84 123 85 21 5 0 0 0 0 0 0 0 0 0 0 0 0 0 0 40 31 18 1 0 0 0 0
0 4 0 0 0 0 0 0 0 0 0 19 0 0 4 43 66 0 104 144 61 17 0 0 0 0 0 0 0 0 0 0 8 1 0 0 11 6 0 0 0 0 0 0
0 16 0 0 0 0 0 0 0 0 0 32 17 10 22 31 46 55 111 98 21 12 0 0 0 0 0 0 0 0 0 0 0 0 0 0 0 1 0 0 0 0 0 0
0 0 11 15 1 0 0 0 0 0 0 0 0 7 25 3 18 32 94 46 8 0 0 0 0 12 5 0 0 0 0 0 0 0 0 0 0 0 0 0 0 0 0 0
4 0 0 0 0 0 0 0 4 102 0 0 13 4 24 0 4 41 9 54 34 29 1 1 35 0 0 0 0 0 0 0 0 0 0 0 0 0 0 0 0 0 0 0
23 4 0 14 2 0 0 1 4 0 3 53 49 21 11 2 10 126 1 7 19 28 58 15 12 0 0 3 1 0 0 0 0 0 0 0 0 0 0 0 0 0 0 0
0 2 0 0 5 0 0 0 2 9 2 5 47 5 2 6 8 0 0 0 0 0 18 51 23 1 0 1 5 7 0 0 0 1 4 0 0 0 0 0 0 0 0 0
0 5 0 32 0 0 0 1 0 39 0 0 14 16 12 0 7 1 0 0 0 0 0 0 0 4 4 8 4 0 6 0 0 0 0 0 0 0 0 1 0 0 0 0
0 9 21 6 3 0 0 1 13 22 0 2 26 61 42 24 19 5 7 0 15 0 0 0 0 0 0 2 0 0 0 0 0 0 0 0 0 0 1 21 0 0 0 0
0 0 0 0 0 0 0 0 0 10 5 2 70 41 3 24 11 9 4 3 1 0 0 0 0 0 0 0 0 1 1 9 9 0 0 1 8 10 7 0 0 0 0 0
0 0 0 0 0 0 0 0 3 0 1 2 3 39 0 0 6 0 13 4 27 5 0 0 0 0 0 0 1 0 1 7 0 6 10 11 3 0 0 0 0 0 0 0
CIN
-0 -0 -1 -0 -0 -0 -0 -0 -0 -0 -0 -0 -0 -0 -0 -0 -0 -0 -0 -0 -0 -117 -107 -107 -102 -195 -172 -142 -103 -137 -129 -82 -115 -88 -76 -76 -0 -0 -0 -0 -0 -0 -0 -0
-1 -0 -0 -0 -0 -1 -0 -2 -0 -0 -0 -0 -0 -0 -0 -0 -0 -0 -0 -0 -0 -93 -117 -110 -115 -101 -243 -248 -216 -147 -146 -135 -105 -87 -54 -62 -0 -0 -0 -0 -0 -0 -0 -0
-1 -0 -0 -2 -0 -2 -4 -0 -0 -0 -1 -1 -0 -0 -0 -0 -0 -0 -0 -0 -0 -0 -95 -101 -90 -101 -242 -267 -225 -187 -159 -140 -78 -59 -50 -80 -0 -0 -0 -0 -0 -0 -0 -0
-0 -0 -0 -1 -0 -2 -2 -1 -9 -9 -7 -4 -0 -0 -0 -0 -0 -0 -0 -0 -0 -4 -144 -97 -114 -112 -226 -224 -187 -154 -152 -0 -103 -43 -45 -58 -0 -0 -0 -0 -0 -0 -0 -0
-0 -0 -0 -0 -0 -4 -0 -0 -8 -3 -4 -13 -0 -4 -0 -0 -0 -0 -0 -0 -44 -20 -37 -171 -117 -145 -149 -149 -143 -113 -132 -161 -132 -58 -53 -37 -0 -0 -0 -0 -0 -0 -0 -0
-0 -0 -0 -0 -0 -0 -0 -0 -1 -13 -23 -2 -0 -2 -0 -0 -0 -0 -0 -47 -67 -64 -17 -207 -158 -158 -147 -135 -131 -127 -91 -43 -30 -73 -31 -41 -0 -0 -0 -0 -0 -0 -0 -0
-0 -0 -0 -0 -0 -0 -3 -1 -0 -0 -0 -1 -0 -4 -0 -0 -184 -182 -0 -0 -8 -7 -29 -194 -186 -170 -159 -148 -152 -132 -94 -46 -34 -95 -17 -18 -0 -0 -0 -0 -0 -0 -0 -0
-0 -0 -0 -0 -0 -0 -0 -0 -3 -0 -0 -0 -0 -0 -0 -0 -0 -141 -89 -0 -0 -0 -10 -242 -195 -219 -154 -145 -167 -133 -83 -28 -4 -62 -30 -52 -0 -0 -0 -0 -0 -0 -0 -0
-0 -0 -0 -0 -2 -29 -0 -3 -0 -5 -13 -8 -0 -0 -0 -0 -0 -0 -0 -0 -0 -0 -48 -27 -42 -213 -192 -134 -105 -103 -89 -42 -20 -0 -57 -30 -5 -0 -0 -0 -0 -0 -0 -0
-1 -4 -0 -0 -7 -9 -0 -5 -3 -5 -1 -2 -3 -0 -0 -0 -30 -13 -28 -43 -0 -2 -2 -0 -34 -155 -119 -20 -79 -48 -41 -19 -28 -25 -6 -23 -0 -0 -0 -0 -0 -0 -0 -0
-1 -4 -0 -0 -32 -24 -5 -8 -13 -0 -4 -6 -3 -0 -21 -13 -91 -35 -13 -54 -23 -5 -59 -119 -67 -64 -35 -0 -0 -0 -30 -23 -44 -50 -0 -20 -0 -0 -0 -0 -0 -8 -7 -0
-0 -4 -0 -0 -0 -80 -6 -12 -5 -2 -5 -1 -0 -0 -28 -3 -47 -16 -15 -19 -8 -8 -0 -0 -1 -15 -0 -0 -0 -0 -0 -0 -17 -14 -0 -0 -0 -0 -0 -36 -6 -7 -10 -0
-0 -0 -0 -0 -41 -2 -1 -6 -3 -5 -13 -0 -2 -0 -4 -8 -6 -14 -6 -25 -26 -0 -0 -7 -0 -0 -0 -0 -0 -0 -0 -0 -0 -0 -0 -0 -0 -0 -2 -4 -2 -5 -0 -0
-0 -0 -3 -0 -0 -0 -5 -6 -5 -26 -5 -0 -0 -2 -9 -12 -0 -0 -21 -80 -20 -11 -0 -0 -0 -0 -0 -0 -0 -0 -0 -0 -0 -0 -0 -0 -0 -2 -0 -0 -3 -1 -0 -0
-1 -0 -0 -1 -0 -0 -1 -2 -0 -5 -2 -0 -0 -0 -0 -7 -21 -32 -36 -79 -55 -0 -0 -0 -0 -0 -0 -0 -0 -0 -0 -0 -1 -0 -0 -0 -0 -0 -0 -9 -0 -0 -0 -0
-6 -0 -0 -0 -0 -0 -0 -0 -1 -2 -13 -16 -0 -0 -0 -61 -36 -49 -48 -57 -51 -56 -2 -0 -0 -0 -10 -0 -0 -0 -0 -0 -0 -0 -0 -0 -0 -0 -2 -2 -0 -0 -0 -0
-0 -3 -0 -0 -0 -0 -0 -0 -0 -0 -0 -6 -0 -0 -123 -63 -25 -7 -42 -30 -50 -56 -0 -0 -0 -0 -0 -0 -0 -0 -0 -1 -0 -1 -0 -0 -0 -2 -3 -0 -0 -0 -0 -0
-0 -7 -1 -0 -0 -0 -0 -0 -0 -0 -0 -37 -69 -116 -79 -51 -24 -9 -12 -20 -38 -27 -0 -0 -0 -0 -4 -0 -0 -0 -0 -0 -0 -0 -0 -0 -0 -1 -0 -0 -0 -0 -0 -0
-0 -2 -13 -0 -0 -0 -0 -0 -0 -0 -0 -0 -0 -14 -55 -23 -7 -19 -26 -45 -26 -0 -0 -0 -0 -51 -18 -0 -0 -0 -0 -0 -0 -0 -0 -0 -0 -0 -0 -0 -0 -0 -0 -0
-5 -0 -0 -0 -0 -0 -0 -0 -59 -30 -0 -7 -120 -95 -23 -0 -24 -42 -144 -31 -16 -37 -87 -6 -46 -4 -0 -0 -0 -0 -0 -0 -0 -0 -0 -0 -0 -0 -0 -0 -0 -0 -0 -0
-1 -0 -0 -0 -0 -0 -1 -7 -5 -0 -48 -61 -13 -32 -17 -14 -10 -81 -28 -36 -90 -89 -59 -87 -83 -0 -0 -8 -14 -0 -0 -4 -0 -0 -0 -0 -0 -0 -0 -0 -0 -0 -0 -0
-0 -0 -0 -0 -1 -0 -0 -1 -1 -7 -11 -64 -45 -14 -25 -10 -3 -0 -0 -0 -5 -1 -128 -91 -101 -64 -0 -4 -15 -9 -0 -0 -0 -2 -0 -0 -0 -0 -0 -0 -0 -0 -0 -0
-0 -9 -0 -0 -1 -0 -0 -7 -1 -1 -0 -4 -8 -12 -41 -0 -6 -1 -0 -0 -0 -0 -0 -0 -0 -169 -135 -36 -18 -0 -16 -0 -0 -0 -0 -0 -0 -0 -0 -14 -1 -0 -0 -0
-0 -2 -3 -2 -4 -0 -0 -3 -14 -11 -1 -3 -12 -26 -48 -74 -67 -18 -57 -0 -63 -0 -0 -0 -0 -0 -0 -81 -9 -0 -0 -0 -0 -0 -0 -0 -0 -0 -0 -7 -1 -0 -0 -0
-0 -0 -0 -0 -0 -0 -0 -0 -0 -7 -10 -28 -21 -45 -27 -36 -48 -56 -44 -51 -54 -0 -0 -0 -0 -0 -0 -0 -11 -11 -10 -12 -16 -0 -0 -0 -1 -7 -20 -6 -0 -0 -0 -0
-0 -0 -0 -0 -0 -0 -0 -0 -30 -0 -7 -8 -23 -53 -0 -5 -35 -69 -33 -68 -45 -41 -0 -0 -38 -2 -0 -15 -18 -21 -1 -7 -0 -3 -16 -11 -19 -8 -0 -0 -0 -0 -0 -0
Wind_Speed
nan nan nan nan nan nan nan nan nan nan nan nan nan nan nan nan nan nan nan nan nan 55 56 57 46 45 55 51 46 47 48 nan 48 46 nan nan nan nan nan nan nan nan nan nan
nan nan nan nan nan nan nan nan nan nan nan nan nan nan nan nan nan nan nan nan nan 48 60 57 54 47 50 nan nan 47 nan nan 46 46 nan nan nan nan nan nan nan nan nan nan
nan nan nan nan nan nan nan nan nan nan nan nan nan nan nan nan nan nan nan nan nan nan 54 56 52 54 45 51 52 49 nan nan 47 51 nan nan nan nan nan nan nan nan nan nan
nan nan nan nan nan nan nan nan nan nan nan nan nan nan nan nan nan nan nan nan nan nan 46 54 57 53 53 45 49 52 nan nan nan 51 nan nan nan nan nan nan nan nan nan nan
nan nan nan nan nan nan nan nan nan nan nan nan nan nan nan nan nan nan nan nan nan nan nan 51 61 57 47 44 47 53 nan nan nan nan nan nan nan nan nan nan nan nan nan nan
nan nan nan nan nan nan nan nan nan nan nan 47 nan nan nan nan nan nan nan nan nan nan nan 58 63 59 51 53 47 48 nan nan nan nan nan nan nan nan nan nan nan nan nan nan
nan nan nan nan nan nan nan nan nan nan nan nan nan nan nan nan nan nan nan nan nan nan nan nan 59 59 57 56 50 56 nan nan nan nan nan nan nan nan nan nan nan nan nan nan
nan nan nan nan nan nan nan nan nan nan nan nan nan nan nan nan nan nan nan nan nan nan nan nan nan nan 56 51 nan nan nan nan nan nan nan nan nan nan nan nan nan nan nan nan
nan nan nan nan nan nan nan nan nan 35 nan nan nan nan nan nan nan nan nan nan nan nan nan nan nan nan nan nan nan nan nan nan nan nan nan nan nan nan nan nan nan nan nan nan
nan nan nan nan nan nan nan nan nan nan nan nan nan nan nan nan nan 47 nan nan nan nan nan nan nan nan nan nan nan nan nan nan nan nan nan nan nan nan nan nan nan nan nan nan
nan nan nan nan nan nan nan nan nan 43 nan nan nan nan nan nan nan 45 nan nan nan nan nan nan nan nan nan nan nan nan nan nan nan nan nan nan nan nan nan nan nan nan nan nan
nan nan nan nan nan nan nan nan nan 42 nan nan nan nan nan nan nan 42 nan nan 49 nan nan nan nan nan nan nan nan nan nan nan nan nan nan nan nan nan nan nan nan nan nan nan
nan nan nan nan nan nan nan nan nan nan nan nan nan nan nan nan nan nan nan nan nan nan nan nan nan nan nan nan nan nan nan nan nan nan nan nan nan nan nan nan nan nan nan nan
nan nan nan nan nan nan nan nan nan nan nan nan nan nan nan nan nan nan nan nan nan nan nan nan nan nan nan nan nan nan nan nan nan nan nan nan nan nan nan nan nan nan nan nan
nan nan nan nan nan nan nan nan nan nan nan nan nan nan nan nan nan nan 32 nan nan nan nan nan nan nan nan nan nan nan nan nan nan nan nan nan nan nan nan nan nan nan nan nan
nan nan nan nan nan nan nan nan nan nan nan nan nan nan nan nan nan nan 37 nan nan nan nan nan nan nan nan nan nan nan nan nan nan nan nan nan nan nan nan nan nan nan nan nan
nan nan nan nan nan nan nan nan nan nan nan nan nan nan nan nan nan nan 39 36 nan nan nan nan nan nan nan nan nan nan nan nan nan nan nan nan nan nan nan nan nan nan nan nan
nan nan nan nan nan nan nan nan nan nan nan nan nan nan nan nan nan nan 55 nan nan nan nan nan nan nan nan nan nan nan nan nan nan nan nan nan nan nan nan nan nan nan nan nan
nan nan nan nan nan nan nan nan nan nan nan nan nan nan nan nan nan nan nan nan nan nan nan nan nan nan nan nan nan nan nan nan nan nan nan nan nan nan nan nan nan nan nan nan
nan nan nan nan nan nan nan nan nan 51 nan nan nan nan nan nan nan nan nan nan nan nan nan nan nan nan nan nan nan nan nan nan nan nan nan nan nan nan nan nan nan nan nan nan
nan nan nan nan nan nan nan nan nan nan nan nan nan nan nan nan nan 22 nan nan nan nan nan nan nan nan nan nan nan nan nan nan nan nan nan nan nan nan nan nan nan nan nan nan
nan nan nan nan nan nan nan nan nan nan nan nan nan nan nan nan nan nan nan nan nan nan nan nan nan nan nan nan nan nan nan nan nan nan nan nan nan nan nan nan nan nan nan nan
nan nan nan nan nan nan nan nan nan nan nan nan nan nan nan nan nan nan nan nan nan nan nan nan nan nan nan nan nan nan nan nan nan nan nan nan nan nan nan nan nan nan nan nan
nan nan nan nan nan nan nan nan nan nan nan nan nan nan nan nan nan nan nan nan nan nan nan nan nan nan nan nan nan nan nan nan nan nan nan nan nan nan nan nan nan nan nan nan
nan nan nan nan nan nan nan nan nan nan nan nan nan nan nan nan nan nan nan nan nan nan nan nan nan nan nan nan nan nan nan nan nan nan nan nan nan nan nan nan nan nan nan nan
nan nan nan nan nan nan nan nan nan nan nan nan nan nan nan nan nan nan nan nan nan nan nan nan nan nan nan nan nan nan nan nan nan nan nan nan nan nan nan nan nan nan nan nan
Wind_Direction
nan nan nan nan nan nan nan nan nan nan nan nan nan nan nan nan nan nan nan nan nan 310 313 311 319 304 300 299 290 286 281 nan 276 277 nan nan nan nan nan nan nan nan nan nan
nan nan nan nan nan nan nan nan nan nan nan nan nan nan nan nan nan nan nan nan nan 299 302 310 310 302 304 nan nan 282 nan nan 277 276 nan nan nan nan nan nan nan nan nan nan
nan nan nan nan nan nan nan nan nan nan nan nan nan nan nan nan nan nan nan nan nan nan 308 311 313 315 307 303 297 290 nan nan 272 275 nan nan nan nan nan nan nan nan nan nan
nan nan nan nan nan nan nan nan nan nan nan nan nan nan nan nan nan nan nan nan nan nan 306 312 310 307 313 309 291 287 nan nan nan 272 nan nan nan nan nan nan nan nan nan nan
nan nan nan nan nan nan nan nan nan nan nan nan nan nan nan nan nan nan nan nan nan nan nan 309 313 316 309 313 303 285 nan nan nan nan nan nan nan nan nan nan nan nan nan nan
nan nan nan nan nan nan nan nan nan nan nan 265 nan nan nan nan nan nan nan nan nan nan nan 304 305 303 296 303 301 291 nan nan nan nan nan nan nan nan nan nan nan nan nan nan
nan nan nan nan nan nan nan nan nan nan nan nan nan nan nan nan nan nan nan nan nan nan nan nan 296 299 293 305 301 296 nan nan nan nan nan nan nan nan nan nan nan nan nan nan
nan nan nan nan nan nan nan nan nan nan nan nan nan nan nan nan nan nan nan nan nan nan nan nan nan nan 299 303 nan nan nan nan nan nan nan nan nan nan nan nan nan nan nan nan
nan nan nan nan nan nan nan nan nan 266 nan nan nan nan nan nan nan nan nan nan nan nan nan nan nan nan nan nan nan nan nan nan nan nan nan nan nan nan nan nan nan nan nan nan
nan nan nan nan nan nan nan nan nan nan nan nan nan nan nan nan nan 252 nan nan nan nan nan nan nan nan nan nan nan nan nan nan nan nan nan nan nan nan nan nan nan nan nan nan
nan nan nan nan nan nan nan nan nan 251 nan nan nan nan nan nan nan 266 nan nan nan nan nan nan nan nan nan nan nan nan nan nan nan nan nan nan nan nan nan nan nan nan nan nan
nan nan nan nan nan nan nan nan nan 247 nan nan nan nan nan nan nan 262 nan nan 246 nan nan nan nan nan nan nan nan nan nan nan nan nan nan nan nan nan nan nan nan nan nan nan
nan nan nan nan nan nan nan nan nan nan nan nan nan nan nan nan nan nan nan nan nan nan nan nan nan nan nan nan nan nan nan nan nan nan nan nan nan nan nan nan nan nan nan nan
nan nan nan nan nan nan nan nan nan nan nan nan nan nan nan nan nan nan nan nan nan nan nan nan nan nan nan nan nan nan nan nan nan nan nan nan nan nan nan nan nan nan nan nan
nan nan nan nan nan nan nan nan nan nan nan nan nan nan nan nan nan nan 289 nan nan nan nan nan nan nan nan nan nan nan nan nan nan nan nan nan nan nan nan nan nan nan nan nan
nan nan nan nan nan nan nan nan nan nan nan nan nan nan nan nan nan nan 296 nan nan nan nan nan nan nan nan nan nan nan nan nan nan nan nan nan nan nan nan nan nan nan nan nan
nan nan nan nan nan nan nan nan nan nan nan nan nan nan nan nan nan nan 277 281 nan nan nan nan nan nan nan nan nan nan nan nan nan nan nan nan nan nan nan nan nan nan nan nan
nan nan nan nan nan nan nan nan nan nan nan nan nan nan nan nan nan nan 278 nan nan nan nan nan nan nan nan nan nan nan nan nan nan nan nan nan nan nan nan nan nan nan nan nan
nan nan nan nan nan nan nan nan nan nan nan nan nan nan nan nan nan nan nan nan nan nan nan nan nan nan nan nan nan nan nan nan nan nan nan nan nan nan nan nan nan nan nan nan
nan nan nan nan nan nan nan nan nan 251 nan nan nan nan nan nan nan nan nan nan nan nan nan nan nan nan nan nan nan nan nan nan nan nan nan nan nan nan nan nan nan nan nan nan
nan nan nan nan nan nan nan nan nan nan nan nan nan nan nan nan nan 246 nan nan nan nan nan nan nan nan nan nan nan nan nan nan nan nan nan nan nan nan nan nan nan nan nan nan
nan nan nan nan nan nan nan nan nan nan nan nan nan nan nan nan nan nan nan nan nan nan nan nan nan nan nan nan nan nan nan nan nan nan nan nan nan nan nan nan nan nan nan nan
nan nan nan nan nan nan nan nan nan nan nan nan nan nan nan nan nan nan nan nan nan nan nan nan nan nan nan nan nan nan nan nan nan nan nan nan nan nan nan nan nan nan nan nan
nan nan nan nan nan nan nan nan nan nan nan nan nan nan nan nan nan nan nan nan nan nan nan nan nan nan nan nan nan nan nan nan nan nan nan nan nan nan nan nan nan nan nan nan
nan nan nan nan nan nan nan nan nan nan nan nan nan nan nan nan nan nan nan nan nan nan nan nan nan nan nan nan nan nan nan nan nan nan nan nan nan nan nan nan nan nan nan nan
nan nan nan nan nan nan nan nan nan nan nan nan nan nan nan nan nan nan nan nan nan nan nan nan nan nan nan nan nan nan nan nan nan nan nan nan nan nan nan nan nan nan nan nan